[[{"header":{"parameterUnit":"m.s-1","parameterCategory":1,"la1":30.2991,"la2":30.254,"lo1":-89.0895,"lo2":-89.0444,"dy":0.0017,"dx":0.0017,"nx":28,"ny":28,"refTime":"2025-03-01T09:00:00:Z","depth":0,"parameterNumber":2,"parameterNumberName":"U-component_of_WINDS"},"data":[0,0,0,0,0,0,0,0,0,0,0,0,0,0,0,0,0,0,0,0,0,0,0,0,0,0,0,0,0,0,0,0,0,0,0,0,0,0,0,0,0,0,0,0,0,0,0,0,0,0,0,0,0,0,0,0,0,0,1.3111,1.3112,0,1.3155,1.3155,1.3156,1.3117,1.3115,1.3113,1.3112,1.3163,1.3165,1.3168,0,0,0,0,0,0,0,0,0,0,0,0,0,1.2999,1.3002,1.3111,1.3112,1.3112,1.3155,1.3155,1.3156,1.3117,1.3115,1.3113,1.3111,1.3162,1.3165,1.3169,0,0,0,0,0,0,0,0,0,0,0,0,0,1.3046,1.3002,1.3111,1.3098,1.3097,1.3154,1.3155,1.3156,1.3117,1.3115,1.3112,1.311,1.3161,1.3165,1.3169,1.3244,0,0,1.3182,1.3184,0,0,0,0,0,0,0,0,1.3043,1.305,1.3099,1.3099,1.3098,1.3127,1.3134,1.3186,1.3118,1.311,1.3112,1.3109,1.3153,1.3158,1.3172,1.3246,1.3248,1.3182,1.3185,1.3187,1.3188,0,0,0,0,0,0,0,1.304,1.3048,1.3128,1.31,1.3099,1.3091,1.3095,1.3144,1.3145,1.311,1.3107,1.3113,1.3153,1.3168,1.3173,1.3249,1.3182,1.3186,1.3189,1.319,1.3387,1.3389,0,0,0,0,0,0,1.3038,1.3046,1.3127,1.313,1.3064,1.3095,1.31,1.3121,1.3144,1.3145,1.3115,1.3111,1.3162,1.3168,1.3174,1.3263,1.3187,1.3191,1.3193,1.3384,1.3387,1.339,0,0,0,0,0,0,1.3035,1.3045,1.3125,1.3087,1.3096,1.31,1.3124,1.3123,1.3138,1.3147,1.3148,1.313,1.316,1.3168,1.3226,1.3264,1.3193,1.3197,1.3381,1.3385,1.3389,1.3442,0,0,0,0,0,0,1.3032,1.3045,1.3072,1.3088,1.3099,1.3175,1.3126,1.3125,1.3144,1.314,1.3162,1.3163,1.3159,1.322,1.3231,1.3269,1.32,1.3378,1.3383,1.3388,1.3437,1.3447,1.3456,0,0,0,0,0,1.3028,1.3087,1.3074,1.3084,1.3133,1.3177,1.3184,1.3176,1.3148,1.3176,1.3182,1.3162,1.3258,1.3226,1.3238,1.3278,1.3375,1.3382,1.3387,1.3432,1.3445,1.3456,0,0,0,0,0,0,1.3078,1.3088,1.3074,1.3139,1.3157,1.3171,1.3206,1.319,1.3218,1.3213,1.3203,1.3209,1.327,1.328,1.3244,1.3352,1.3313,1.3321,1.3343,1.3355,1.3364,1.3361,1.3204,0,0,0,0,0,1.3095,1.3129,1.3138,1.3194,1.3203,1.3203,1.3223,1.3214,1.3234,1.3242,1.3253,1.3274,1.3309,1.3333,1.3365,1.3438,1.3442,1.3471,1.3481,1.3489,1.3496,1.3535,1.3548,1.341,1.341,1.341,0,0,1.3134,1.3144,1.3166,1.3204,1.3217,1.3254,1.321,1.3251,1.3279,1.3249,1.3304,1.3313,1.3336,1.3401,1.3431,1.3411,1.3535,1.3496,1.3502,1.3506,1.3543,1.3556,1.3568,1.3414,1.3413,1.3413,0,0,1.3222,1.3232,1.328,1.3294,1.3314,1.3313,1.3325,1.334,1.3344,1.3398,1.3377,1.3411,1.3471,1.3488,1.3505,1.3599,1.3582,1.361,1.3661,1.3699,1.371,1.3719,1.3753,1.3765,1.3617,1.3617,1.3618,0,1.3267,1.332,1.3307,1.3349,1.3367,1.3339,1.3389,1.3403,1.3434,1.3448,1.3425,1.3499,1.3513,1.3582,1.3605,1.3619,1.3633,1.3608,1.3709,1.3718,1.3727,1.3759,1.3772,1.3621,1.362,1.362,1.362,0,1.3375,1.3412,1.3448,1.3476,1.3498,1.3543,1.3539,1.3563,1.3553,1.3555,1.3611,1.3626,1.3661,1.3677,1.3669,1.3745,1.3732,1.3709,1.367,1.3744,1.3774,1.3786,1.3625,1.3624,1.3623,1.3622,0,0,1.3496,1.3515,1.3529,1.3541,1.356,1.3589,1.3634,1.3666,1.3687,1.3709,1.3747,1.3798,1.3776,1.3795,1.3788,1.3822,1.3895,1.3795,1.3795,1.3813,1.3981,1.3998,1.4012,1.3884,1.3886,1.3888,1.3979,0,1.3585,1.366,1.365,1.3723,1.3757,1.3731,1.377,1.3787,1.379,1.3821,1.3825,1.3861,1.383,1.3841,1.3873,1.3879,1.3929,1.3873,1.392,1.3922,1.3915,1.4028,1.4046,1.4131,1.399,1.3992,1.3994,0,1.3699,1.3722,1.3798,1.3811,1.3826,1.386,1.3889,1.3918,1.3937,1.3937,1.3958,1.3945,1.3991,1.395,1.4014,1.3976,1.3995,1.4001,1.4004,1.4009,1.3963,1.4036,1.4158,1.4171,1.4012,1.4011,1.4009,0,1.378,1.3831,1.3882,1.3893,1.3911,1.3936,1.3944,1.3961,1.3981,1.4006,1.4019,1.405,1.4068,1.4093,1.409,1.406,1.4155,1.4114,1.4157,1.4157,1.4179,1.4178,1.4307,1.4191,1.419,1.419,1.419,0,1.388,1.3928,1.3919,1.3951,1.4003,1.3992,1.4045,1.405,1.4065,1.4099,1.4079,1.4111,1.4104,1.4137,1.4135,1.4188,1.4197,1.4199,1.4198,1.4201,1.42,1.4213,1.4208,1.4194,1.4193,1.4192,1.4192,0,1.398,1.3976,1.403,1.4041,1.4045,1.4084,1.4094,1.4125,1.4125,1.4168,1.4178,1.418,1.4217,1.4215,1.4259,1.4257,1.4323,1.4315,1.4316,1.4314,1.4358,1.4354,1.45,1.4519,1.439,1.4392,1.4393,0,1.4045,1.408,1.4094,1.4114,1.4124,1.4157,1.4176,1.4166,1.4188,1.4212,1.424,1.4275,1.4302,1.4363,1.437,1.4403,1.4396,1.4445,1.4401,1.4402,1.4397,1.4395,1.4399,1.4454,1.4455,1.4456,1.4457,0,1.416,1.4155,1.4183,1.421,1.4233,1.4255,1.4274,1.4292,1.4285,1.431,1.4347,1.4368,1.441,1.4446,1.4477,1.4488,1.4472,1.4471,1.4482,1.4486,1.4485,1.4486,1.434,1.4468,1.4467,1.4466,1.4465,1.4465,1.4244,1.4274,1.4288,1.432,1.4333,1.4351,1.438,1.4384,1.4414,1.4446,1.4439,1.4481,1.4499,1.4539,1.4552,1.4586,1.4569,1.4586,1.459,1.4595,1.46,1.4479,1.4592,1.4591,1.4591,1.4591,1.459,0,1.4358,1.4365,1.4395,1.4421,1.4446,1.4427,1.4447,1.447,1.4506,1.4523,1.455,1.4592,1.4626,1.4635,1.4668,1.4693,1.4687,1.4702,1.47,1.4703,1.4613,1.4599,1.4707,1.4707,1.4707,1.4707,1.4707,1.4707,1.442,1.447,1.4468,1.4524,1.4532,1.457,1.4584,1.4601,1.4615,1.4662,1.4689,1.4694,1.4708,1.4742,1.4773,1.4774,1.4788,1.4806,1.4805,1.4721,1.471,1.4699,1.4686,1.4809,1.4809,1.4893,1.4894,1.4894]},{"header":{"parameterUnit":"m.s-1","parameterCategory":1,"la1":30.2991,"la2":30.254,"lo1":-89.0895,"lo2":-89.0444,"dy":0.0017,"dx":0.0017,"nx":28,"ny":28,"refTime":"2025-03-01T09:00:00:Z","depth":0,"parameterNumber":3,"parameterNumberName":"V-component_of_WINDS"},"data":[0,0,0,0,0,0,0,0,0,0,0,0,0,0,0,0,0,0,0,0,0,0,0,0,0,0,0,0,0,0,0,0,0,0,0,0,0,0,0,0,0,0,0,0,0,0,0,0,0,0,0,0,0,0,0,0,0,0,1.917,1.9171,0,1.923,1.9231,1.9231,1.916,1.9157,1.9155,1.9152,1.9211,1.9215,1.9219,0,0,0,0,0,0,0,0,0,0,0,0,0,1.8989,1.8992,1.917,1.9171,1.9172,1.923,1.9231,1.9231,1.916,1.9157,1.9154,1.9151,1.921,1.9214,1.9219,0,0,0,0,0,0,0,0,0,0,0,0,0,1.906,1.8994,1.917,1.9143,1.9141,1.923,1.9231,1.9232,1.9161,1.9157,1.9153,1.915,1.9208,1.9214,1.922,1.9337,0,0,1.9238,1.9241,0,0,0,0,0,0,0,0,1.9056,1.9067,1.9146,1.9145,1.9143,1.9183,1.9188,1.9267,1.9162,1.9154,1.9152,1.9148,1.9205,1.9211,1.9231,1.9339,1.9342,1.9239,1.9243,1.9245,1.9247,0,0,0,0,0,0,0,1.9051,1.9064,1.9194,1.9148,1.9146,1.9126,1.9132,1.9203,1.9201,1.9154,1.9149,1.9157,1.9203,1.9225,1.9232,1.9343,1.9239,1.9244,1.9248,1.925,1.9544,1.9548,0,0,0,0,0,0,1.905,1.906,1.9192,1.9195,1.9089,1.9133,1.9139,1.9175,1.92,1.92,1.9161,1.9154,1.9217,1.9225,1.9233,1.9368,1.9245,1.9251,1.9254,1.954,1.9545,1.955,0,0,0,0,0,0,1.9046,1.9062,1.9189,1.9126,1.9141,1.914,1.918,1.9178,1.92,1.9205,1.9203,1.9184,1.9214,1.9225,1.931,1.9369,1.9254,1.9259,1.9535,1.9542,1.9547,1.9641,0,0,0,0,0,0,1.9041,1.9061,1.9108,1.9128,1.9145,1.9268,1.9184,1.9182,1.9211,1.9202,1.9226,1.9226,1.9212,1.9302,1.9316,1.9376,1.9264,1.953,1.9538,1.9545,1.9633,1.965,1.9665,0,0,0,0,0,1.9035,1.9132,1.911,1.9127,1.9203,1.9271,1.928,1.9263,1.9216,1.926,1.9263,1.9225,1.9361,1.9311,1.9327,1.9389,1.9526,1.9536,1.9545,1.9626,1.9647,1.9664,0,0,0,0,0,0,1.9119,1.9134,1.911,1.9217,1.9243,1.9259,1.9315,1.9286,1.9326,1.9316,1.9291,1.9297,1.9387,1.9397,1.9341,1.95,1.9435,1.9448,1.9491,1.9511,1.9527,1.9522,1.9269,0,0,0,0,0,1.915,1.9206,1.9216,1.9309,1.9323,1.9317,1.9346,1.933,1.9356,1.9366,1.9375,1.9401,1.9448,1.948,1.9525,1.9634,1.9636,1.9684,1.9699,1.9712,1.9724,1.9778,1.9798,1.9581,1.9581,1.958,0,0,1.9214,1.923,1.9267,1.9326,1.9344,1.94,1.9327,1.9391,1.9431,1.9376,1.9456,1.9463,1.949,1.9586,1.9629,1.9597,1.9784,1.9724,1.9735,1.9739,1.979,1.981,1.9829,1.9587,1.9586,1.9585,0,0,1.936,1.9379,1.9456,1.9475,1.9503,1.9498,1.9517,1.9536,1.9538,1.9619,1.9577,1.9624,1.9708,1.9727,1.9748,1.9896,1.9862,1.9911,1.9994,2.0047,2.0064,2.0079,2.0129,2.0148,1.9923,1.9923,1.9923,0,1.9437,1.9521,1.95,1.9565,1.9591,1.9542,1.9619,1.9638,1.9679,1.9697,1.966,1.9761,1.9776,1.9875,1.991,1.993,1.9948,1.9909,2.0064,2.0079,2.0092,2.014,2.0159,1.9929,1.9928,1.9927,1.9927,0,1.9611,1.967,1.9729,1.9769,1.9801,1.9872,1.9859,1.9894,1.9874,1.9871,1.9952,1.9967,2.0012,2.0034,2.0016,2.0129,2.0107,2.0068,2.0002,2.0119,2.0163,2.0181,1.9937,1.9935,1.9933,1.9932,0,0,1.9814,1.9839,1.986,1.9876,1.9902,1.9946,2.0012,2.0056,2.0085,2.0114,2.0167,2.0237,2.0199,2.0223,2.0205,2.0252,2.0364,2.0206,2.0206,2.0233,2.0486,2.0515,2.0537,2.0342,2.0345,2.0348,2.0483,0,1.9958,2.0074,2.0055,2.0167,2.0218,2.0171,2.0228,2.0249,2.0248,2.029,2.0288,2.0337,2.0284,2.0298,2.0342,2.0342,2.0415,2.0332,2.0389,2.0392,2.0383,2.056,2.0592,2.0719,2.0501,2.0504,2.0506,0,2.0142,2.0176,2.0293,2.0306,2.0327,2.0379,2.0415,2.0457,2.0478,2.0473,2.0498,2.0471,2.0534,2.0467,2.0553,2.0497,2.0518,2.0521,2.0526,2.053,2.0455,2.0567,2.076,2.0779,2.0533,2.0531,2.0529,0,2.0274,2.035,2.0428,2.0443,2.0462,2.0499,2.0508,2.0525,2.0551,2.0582,2.0598,2.0637,2.0657,2.0687,2.0669,2.0623,2.0757,2.0689,2.0753,2.0753,2.0783,2.0781,2.098,2.08,2.08,2.0799,2.0799,0,2.0436,2.0508,2.0487,2.0536,2.0614,2.059,2.0668,2.0671,2.0686,2.0732,2.0694,2.0738,2.0713,2.0754,2.0741,2.0812,2.0822,2.0818,2.0814,2.0821,2.0822,2.0835,2.0825,2.0804,2.0803,2.0802,2.0801,0,2.0597,2.0586,2.0668,2.0678,2.0682,2.0739,2.0746,2.079,2.0784,2.0843,2.0855,2.0847,2.0893,2.0878,2.0929,2.0919,2.1009,2.0994,2.1002,2.0998,2.1061,2.1055,2.1275,2.1302,2.1105,2.1107,2.1109,0,2.0701,2.0755,2.077,2.0798,2.0809,2.0856,2.0881,2.0858,2.0886,2.0912,2.0952,2.0994,2.1027,2.1103,2.11,2.1137,2.1122,2.1196,2.1127,2.1132,2.112,2.1117,2.1121,2.121,2.1212,2.1214,2.1215,0,2.0884,2.0875,2.0914,2.095,2.0982,2.1009,2.1033,2.1058,2.1036,2.1069,2.1116,2.1141,2.1191,2.1233,2.1266,2.1273,2.124,2.1237,2.1253,2.1261,2.1263,2.126,2.1038,2.1232,2.123,2.1229,2.1228,2.1228,2.1018,2.1063,2.1079,2.1123,2.1138,2.116,2.12,2.1199,2.1237,2.1276,2.126,2.1312,2.1328,2.1368,2.138,2.142,2.1391,2.1415,2.1421,2.1427,2.1434,2.1257,2.1426,2.1425,2.1425,2.1424,2.1424,0,2.1198,2.1205,2.1245,2.1279,2.1312,2.1278,2.1301,2.1331,2.1378,2.1396,2.1428,2.1479,2.1519,2.1518,2.1554,2.1586,2.1572,2.1596,2.1593,2.1595,2.1459,2.144,2.1607,2.1607,2.1607,2.1607,2.1607,2.1607,2.1295,2.1368,2.136,2.1438,2.1444,2.1496,2.1512,2.1531,2.1544,2.1603,2.1636,2.1635,2.1644,2.168,2.1714,2.1712,2.1727,2.1757,2.1749,2.1623,2.1605,2.1587,2.157,2.176,2.1761,2.1881,2.1882,2.1883]}]]